Погода в Ключах

Россия / Оренбургская область     52°56′54″N   52°44′12″E
темп.,
°C
ветер,
м/с
пор.,
м/с
влажн.,
%
обл.,
%
осадки,
мм/ч
давл.,
гПа
погр.,
м
14 июня, пн
пн1423:00+19в3369100 0.0 101529
02:00+17в226867 0.0 101522
05:00+16в337088 0.0 101541
08:00+20вюв356811 0.0 1015184
11:00+25юв5654100 0.0 1015582
14:00+28ююв574874 0.0 10151247
17:00+30ююз474323 0.0 10142050
20:00+21ююз71281100 0.6 1016508
15 июня, вт
вт1523:00+18с119199 0.7 101612
02:00+18юв3690100 0.0 1016131
05:00+19в228197 0.1 101525
08:00+21ююв247598 0.1 1016200
11:00+25в2251100 0.1 1015203
14:00+28юв453665 0.0 10151141
17:00+29юв4638100 0.0 10142265
20:00+26в3458100 0.0 101267
16 июня, ср
ср1623:00+22в4656100 0.0 101272
02:00+21в4853100 0.0 1011139
05:00+20юв41350100 0.0 1010260
08:00+22ююв41156100 0.0 1011344
11:00+24ю61051100 0.0 1011502
14:00+25ю595997 0.0 1011598
17:00+29ю695167 0.0 10102072
20:00+26ююз396314 0.0 1008258
17 июня, чт
чт1723:00+21зюз1275100 0.3 100911
02:00+18ююз118520 0.9 100911
05:00+17з22905 0.9 100917
08:00+20сз458516 0.0 1009315
11:00+20ссз7880100 0.0 1011751
14:00+19ссз797899 0.1 1012889
17:00+20с696637 0.1 10131278
20:00+19с59670 0.1 1014943
18 июня, пт
пт1823:00+16ссз613702 0.1 1015382
02:00+14ссз513710 0.0 1016342
05:00+12с513680 0.0 1018315
08:00+15с611660 0.0 1019480
11:00+19с710490 0.0 10201562
14:00+20с794691 0.0 10212196
17:00+20ссз7853100 0.0 10211591
20:00+18ссв58645 0.0 1022761